TimeCST,TemperatureF,Dew PointF,Humidity,Sea Level PressureIn,VisibilityMPH,Wind Direction,Wind SpeedMPH,Gust SpeedMPH,PrecipitationIn,Events,Conditions,WindDirDegrees,DateUTC
12:00 AM,55.4,53.6,94,29.87,5.0,East,5.8,-,0.00,Rain-Thunderstorm,Rain,100,2013-02-25 06:00:00
12:15 AM,55.4,53.6,94,29.89,10.0,SE,5.8,-,0.00,Rain-Thunderstorm,Light Rain,130,2013-02-25 06:15:00
12:53 AM,57.0,54.0,89,29.89,4.0,East,3.5,-,N/A,Rain-Thunderstorm,Heavy Rain,80,2013-02-25 06:53:00
12:57 AM,57.2,53.6,88,29.89,3.0,ENE,4.6,-,0.02,Rain-Thunderstorm,Heavy Rain,60,2013-02-25 06:57:00
1:21 AM,57.2,55.4,94,29.87,3.0,ENE,5.8,-,0.06,Rain-Thunderstorm,Rain,60,2013-02-25 07:21:00
1:48 AM,57.2,53.6,88,29.84,8.0,ENE,8.1,-,0.08,Rain,Light Rain,70,2013-02-25 07:48:00
2:53 AM,55.9,54.0,93,29.81,4.0,ENE,5.8,-,0.03,Rain,Heavy Rain,70,2013-02-25 08:53:00
3:28 AM,55.4,53.6,94,29.82,5.0,East,5.8,-,0.02,Rain-Thunderstorm,Rain,90,2013-02-25 09:28:00
3:43 AM,57.2,53.6,88,29.80,7.0,ENE,4.6,-,0.04,Rain,Light Rain,70,2013-02-25 09:43:00
3:50 AM,57.2,55.4,94,29.80,6.0,ENE,5.8,-,0.05,Rain-Thunderstorm,Rain,70,2013-02-25 09:50:00
4:18 AM,57.2,55.4,94,29.84,2.5,Variable,3.5,-,0.10,Rain-Thunderstorm,Heavy Rain,0,2013-02-25 10:18:00
4:27 AM,57.2,55.4,94,29.82,5.0,NE,4.6,-,0.11,Rain-Thunderstorm,Rain,50,2013-02-25 10:27:00
4:40 AM,57.2,55.4,94,29.83,7.0,North,5.8,-,0.11,Rain,Light Rain,360,2013-02-25 10:40:00
4:53 AM,57.9,55.9,93,29.81,8.0,NNE,4.6,-,0.11,Rain,Light Rain,20,2013-02-25 10:53:00
5:18 AM,57.2,55.4,94,29.82,7.0,North,8.1,-,N/A,Rain-Thunderstorm,Thunderstorms and Rain,10,2013-02-25 11:18:00
5:36 AM,57.2,55.4,94,29.82,5.0,NE,4.6,-,N/A,Rain-Thunderstorm,Heavy Rain,40,2013-02-25 11:36:00
5:53 AM,57.0,55.0,93,29.81,5.0,NE,8.1,-,N/A,Rain-Thunderstorm,Thunderstorms and Rain,50,2013-02-25 11:53:00
6:05 AM,57.2,55.4,94,29.83,6.0,NE,3.5,-,0.01,Rain-Thunderstorm,Heavy Rain,50,2013-02-25 12:05:00
6:12 AM,57.2,55.4,94,29.82,2.5,NE,5.8,-,0.05,Rain-Thunderstorm,Heavy Rain,40,2013-02-25 12:12:00
6:33 AM,57.2,55.4,94,29.84,2.0,NNE,8.1,-,0.19,Rain-Thunderstorm,Heavy Thunderstorms and Rain,30,2013-02-25 12:33:00
6:39 AM,57.2,55.4,94,29.84,2.0,ENE,9.2,-,0.22,Rain-Thunderstorm,Heavy Thunderstorms and Rain,60,2013-02-25 12:39:00
6:48 AM,57.2,55.4,94,29.87,1.8,Variable,3.5,17.3,0.30,Rain-Thunderstorm,Heavy Thunderstorms and Rain,0,2013-02-25 12:48:00
6:53 AM,57.9,55.9,93,29.86,1.5,North,4.6,-,0.33,Rain-Thunderstorm,Heavy Thunderstorms and Rain,10,2013-02-25 12:53:00
7:02 AM,57.2,55.4,94,29.87,2.0,NNW,3.5,-,0.04,Rain-Thunderstorm,Heavy Thunderstorms and Rain,340,2013-02-25 13:02:00
7:12 AM,57.2,55.4,94,29.90,4.0,NW,8.1,-,0.06,Rain-Thunderstorm,Heavy Thunderstorms and Rain,310,2013-02-25 13:12:00
7:19 AM,57.2,55.4,94,29.91,2.5,WNW,10.4,-,0.10,Rain,Heavy Rain,300,2013-02-25 13:19:00
7:26 AM,57.2,55.4,94,29.88,2.0,NE,9.2,-,0.16,Rain-Thunderstorm,Heavy Rain,50,2013-02-25 13:26:00
7:30 AM,57.2,55.4,94,29.85,1.5,NE,12.7,18.4,0.20,Rain-Thunderstorm,Heavy Rain,50,2013-02-25 13:30:00
7:35 AM,57.2,55.4,94,29.87,1.5,NNE,8.1,18.4,0.23,Rain,Heavy Rain,20,2013-02-25 13:35:00
7:49 AM,57.2,55.4,94,29.87,2.5,NNE,5.8,-,0.27,Rain,Heavy Rain,20,2013-02-25 13:49:00
7:53 AM,57.0,55.0,93,29.86,3.0,NNE,9.2,-,0.28,Rain,Rain,30,2013-02-25 13:53:00
8:53 AM,57.9,55.9,93,29.87,3.0,ENE,8.1,16.1,0.13,Rain,Heavy Rain,60,2013-02-25 14:53:00
9:08 AM,57.2,55.4,94,29.86,8.0,East,8.1,-,0.00,Rain,Rain,80,2013-02-25 15:08:00
9:53 AM,59.0,57.0,93,29.84,10.0,East,9.2,18.4,N/A,Rain,Light Rain,80,2013-02-25 15:53:00
10:14 AM,60.8,57.2,88,29.83,10.0,East,9.2,19.6,N/A,Rain,Light Rain,90,2013-02-25 16:14:00
10:53 AM,61.0,57.0,87,29.86,10.0,Variable,6.9,-,N/A,Rain,Light Rain,0,2013-02-25 16:53:00
11:03 AM,60.8,57.2,88,29.84,10.0,East,9.2,-,N/A,Rain,Light Rain,90,2013-02-25 17:03:00
11:14 AM,62.6,57.2,82,29.82,10.0,ESE,12.7,20.7,N/A,Rain,Light Rain,110,2013-02-25 17:14:00
11:23 AM,62.6,59.0,88,29.81,10.0,East,8.1,21.9,N/A,Rain,Light Rain,100,2013-02-25 17:23:00
11:30 AM,62.6,59.0,88,29.81,10.0,East,11.5,17.3,N/A,,Mostly Cloudy,100,2013-02-25 17:30:00
11:53 AM,63.0,57.9,84,29.80,10.0,East,13.8,20.7,N/A,,Mostly Cloudy,100,2013-02-25 17:53:00
12:53 PM,66.9,57.9,73,29.77,10.0,East,11.5,18.4,N/A,,Mostly Cloudy,90,2013-02-25 18:53:00
1:53 PM,66.0,57.9,75,29.74,10.0,ESE,12.7,-,N/A,,Mostly Cloudy,110,2013-02-25 19:53:00
2:33 PM,66.2,57.2,73,29.73,10.0,East,12.7,17.3,N/A,,Overcast,80,2013-02-25 20:33:00
2:53 PM,64.9,57.9,78,29.73,10.0,ESE,9.2,16.1,N/A,,Overcast,110,2013-02-25 20:53:00
3:02 PM,64.4,57.2,77,29.73,10.0,East,9.2,-,N/A,,Mostly Cloudy,100,2013-02-25 21:02:00
3:51 PM,64.4,57.2,77,29.72,10.0,East,8.1,-,N/A,,Overcast,100,2013-02-25 21:51:00
3:53 PM,64.0,57.0,78,29.71,10.0,ESE,6.9,-,N/A,,Overcast,110,2013-02-25 21:53:00
4:53 PM,63.0,57.9,84,29.72,10.0,Variable,4.6,-,N/A,Rain,Light Rain,0,2013-02-25 22:53:00
5:35 PM,62.6,59.0,88,29.72,10.0,ESE,4.6,-,N/A,Rain,Light Rain,110,2013-02-25 23:35:00
5:53 PM,62.1,59.0,90,29.70,8.0,ENE,6.9,-,N/A,Rain,Rain,70,2013-02-25 23:53:00
6:06 PM,62.6,59.0,88,29.70,10.0,ESE,6.9,-,0.00,Rain,Light Rain,120,2013-02-26 00:06:00
6:53 PM,62.1,59.0,90,29.67,10.0,East,5.8,18.4,0.01,Rain,Light Rain,90,2013-02-26 00:53:00
7:53 PM,62.1,60.1,93,29.66,10.0,East,5.8,-,0.00,Rain,Light Rain,100,2013-02-26 01:53:00
8:53 PM,63.0,60.1,90,29.64,10.0,SE,8.1,16.1,0.00,,Overcast,130,2013-02-26 02:53:00
9:53 PM,63.0,60.1,90,29.65,10.0,SE,9.2,-,0.00,Rain,Light Rain,130,2013-02-26 03:53:00
10:10 PM,62.6,60.8,94,29.64,9.0,SE,8.1,-,0.00,Rain,Light Rain,130,2013-02-26 04:10:00
10:25 PM,64.4,60.8,88,29.63,10.0,ESE,8.1,-,0.00,Rain,Light Rain,110,2013-02-26 04:25:00
10:53 PM,64.9,62.1,90,29.60,6.0,SSE,6.9,17.3,0.01,Rain,Light Rain,150,2013-02-26 04:53:00
11:01 PM,64.4,62.6,94,29.60,8.0,ESE,10.4,17.3,0.00,Rain,Light Rain,120,2013-02-26 05:01:00
11:41 PM,64.4,62.6,94,29.57,4.0,SE,8.1,-,0.04,Rain,Heavy Rain,140,2013-02-26 05:41:00
11:53 PM,64.9,63.0,93,29.56,4.0,SE,9.2,17.3,0.06,Rain,Rain,130,2013-02-26 05:53:00